<?xml version='1.0' encoding='UTF-8'?>
<gpx xmlns="http://www.topografix.com/GPX/1/1" creator="www.balnam.be" version="1.1" xmlns:xsi="http://www.w3.org/2001/XMLSchema-instance" xsi:schemaLocation="http://www.topografix.com/GPX/1/1 http://www.topografix.com/GPX/1/1/gpx.xsd">
<trk>
<name>hmosp1</name>
<cmt>v</cmt>
<desc>Spiennes Chemin n°1 Rue de Nouvelles</desc>
<link href="https://chemins.be/spiennes/chemin/1"/><trkseg>
<trkpt lat="50.420290" lon="3.985049"><time>2026-05-02T19:55:19Z</time></trkpt>
<trkpt lat="50.419547" lon="3.984155"><time>2026-05-02T20:05:19Z</time></trkpt>
<trkpt lat="50.419110" lon="3.983418"><time>2026-05-02T20:15:19Z</time></trkpt>
<trkpt lat="50.418339" lon="3.982882"><time>2026-05-02T20:25:19Z</time></trkpt>
<trkpt lat="50.418211" lon="3.982460"><time>2026-05-02T20:35:19Z</time></trkpt>
<trkpt lat="50.417708" lon="3.982186"><time>2026-05-02T20:45:19Z</time></trkpt>
<trkpt lat="50.416395" lon="3.982237"><time>2026-05-02T20:55:19Z</time></trkpt>
<trkpt lat="50.415137" lon="3.980546"><time>2026-05-02T21:05:19Z</time></trkpt>
</trkseg>
</trk>
<trk>
<name>hmosp10</name>
<cmt>v</cmt>
<desc>Spiennes Chemin n°10 Rue du Point du Jour</desc>
<link href="https://chemins.be/spiennes/chemin/10"/><trkseg>
<trkpt lat="50.422823" lon="3.983862"><time>2026-05-02T19:55:19Z</time></trkpt>
<trkpt lat="50.422532" lon="3.983160"><time>2026-05-02T20:05:19Z</time></trkpt>
<trkpt lat="50.421829" lon="3.982364"><time>2026-05-02T20:15:19Z</time></trkpt>
<trkpt lat="50.422211" lon="3.981186"><time>2026-05-02T20:25:19Z</time></trkpt>
</trkseg></trk>
<trk>
<name>hmosp10</name>
<cmt>q</cmt>
<desc>Spiennes Chemin n°10 Rue du Point du Jour</desc>
<link href="https://chemins.be/spiennes/chemin/10"/><trkseg>
<trkpt lat="50.422211" lon="3.981186"><time>2026-05-02T20:25:19Z</time></trkpt>
<trkpt lat="50.422386" lon="3.980062"><time>2026-05-02T20:35:19Z</time></trkpt>
<trkpt lat="50.422070" lon="3.978415"><time>2026-05-02T20:45:19Z</time></trkpt>
</trkseg></trk>
<trk>
<name>hmosp10</name>
<cmt>d</cmt>
<desc>Spiennes Chemin n°10 Rue du Point du Jour</desc>
<link href="https://chemins.be/spiennes/chemin/10"/><trkseg>
<trkpt lat="50.422070" lon="3.978415"><time>2026-05-02T20:45:19Z</time></trkpt>
<trkpt lat="50.421883" lon="3.977440"><time>2026-05-02T20:55:19Z</time></trkpt>
<trkpt lat="50.421749" lon="3.975591"><time>2026-05-02T21:05:19Z</time></trkpt>
<trkpt lat="50.421739" lon="3.973079"><time>2026-05-02T21:15:19Z</time></trkpt>
</trkseg></trk>
<trk>
<name>hmosp10</name>
<cmt>r</cmt>
<desc>Spiennes Chemin n°10 Rue du Point du Jour</desc>
<link href="https://chemins.be/spiennes/chemin/10"/><trkseg>
<trkpt lat="50.421739" lon="3.973079"><time>2026-05-02T21:15:19Z</time></trkpt>
<trkpt lat="50.421463" lon="3.972061"><time>2026-05-02T21:25:19Z</time></trkpt>
</trkseg>
</trk>
<trk>
<name>hmosp11</name>
<cmt>s</cmt>
<desc>Spiennes Chemin n°11 </desc>
<link href="https://chemins.be/spiennes/chemin/11"/><trkseg>
<trkpt lat="50.421455" lon="3.991101"><time>2026-05-02T19:55:19Z</time></trkpt>
<trkpt lat="50.420886" lon="3.993831"><time>2026-05-02T20:05:19Z</time></trkpt>
<trkpt lat="50.420601" lon="3.996200"><time>2026-05-02T20:15:19Z</time></trkpt>
<trkpt lat="50.420186" lon="4.002208"><time>2026-05-02T20:25:19Z</time></trkpt>
<trkpt lat="50.420273" lon="4.003427"><time>2026-05-02T20:35:19Z</time></trkpt>
</trkseg>
</trk>
<trk>
<name>hmosp13</name>
<cmt>q</cmt>
<desc>Spiennes Chemin n°13 </desc>
<link href="https://chemins.be/spiennes/chemin/13"/><trkseg>
<trkpt lat="50.427581" lon="3.998032"><time>2026-05-02T19:55:19Z</time></trkpt>
<trkpt lat="50.427985" lon="3.998684"><time>2026-05-02T20:05:19Z</time></trkpt>
<trkpt lat="50.426431" lon="4.002345"><time>2026-05-02T20:15:19Z</time></trkpt>
<trkpt lat="50.425251" lon="4.007104"><time>2026-05-02T20:25:19Z</time></trkpt>
</trkseg>
</trk>
<trk>
<name>hmosp14</name>
<cmt>s</cmt>
<desc>Spiennes Sentier n°14 </desc>
<link href="https://chemins.be/spiennes/sentier/14"/><trkseg>
<trkpt lat="50.425545" lon="3.986388"><time>2026-05-02T19:55:19Z</time></trkpt>
<trkpt lat="50.425336" lon="3.985545"><time>2026-05-02T20:05:19Z</time></trkpt>
<trkpt lat="50.425185" lon="3.984789"><time>2026-05-02T20:15:19Z</time></trkpt>
</trkseg></trk>
<trk>
<name>hmosp14</name>
<cmt>v</cmt>
<desc>Spiennes Sentier n°14 </desc>
<link href="https://chemins.be/spiennes/sentier/14"/><trkseg>
<trkpt lat="50.425185" lon="3.984789"><time>2026-05-02T20:15:19Z</time></trkpt>
<trkpt lat="50.425236" lon="3.984680"><time>2026-05-02T20:25:19Z</time></trkpt>
<trkpt lat="50.425283" lon="3.983111"><time>2026-05-02T20:35:19Z</time></trkpt>
<trkpt lat="50.425322" lon="3.981337"><time>2026-05-02T20:45:19Z</time></trkpt>
</trkseg>
</trk>
<trk>
<name>hmosp15</name>
<cmt>q</cmt>
<desc>Spiennes Sentier n°15 </desc>
<link href="https://chemins.be/spiennes/sentier/15"/><trkseg>
<trkpt lat="50.426506" lon="3.980176"><time>2026-05-02T19:55:19Z</time></trkpt>
<trkpt lat="50.429574" lon="3.975620"><time>2026-05-02T20:05:19Z</time></trkpt>
</trkseg>
</trk>
<trk>
<name>hmosp16</name>
<cmt>s</cmt>
<desc>Spiennes Sentier n°16 </desc>
<link href="https://chemins.be/spiennes/sentier/16"/><trkseg>
<trkpt lat="50.424241" lon="3.986257"><time>2026-05-02T19:55:19Z</time></trkpt>
<trkpt lat="50.424357" lon="3.985750"><time>2026-05-02T20:05:19Z</time></trkpt>
<trkpt lat="50.425183" lon="3.984797"><time>2026-05-02T20:15:19Z</time></trkpt>
</trkseg>
</trk>
<trk>
<name>hmosp17</name>
<cmt>q</cmt>
<desc>Spiennes Sentier n°17 </desc>
<link href="https://chemins.be/spiennes/sentier/17"/><trkseg>
<trkpt lat="50.423795" lon="3.989397"><time>2026-05-02T19:55:19Z</time></trkpt>
<trkpt lat="50.423656" lon="3.990161"><time>2026-05-02T20:05:19Z</time></trkpt>
<trkpt lat="50.424663" lon="3.990271"><time>2026-05-02T20:15:19Z</time></trkpt>
<trkpt lat="50.425576" lon="3.991017"><time>2026-05-02T20:25:19Z</time></trkpt>
</trkseg></trk>
<trk>
<name>hmosp17</name>
<cmt>d</cmt>
<desc>Spiennes Sentier n°17 </desc>
<link href="https://chemins.be/spiennes/sentier/17"/><trkseg>
<trkpt lat="50.425576" lon="3.991017"><time>2026-05-02T20:25:19Z</time></trkpt>
<trkpt lat="50.426099" lon="3.991875"><time>2026-05-02T20:35:19Z</time></trkpt>
<trkpt lat="50.426386" lon="3.992240"><time>2026-05-02T20:45:19Z</time></trkpt>
</trkseg></trk>
<trk>
<name>hmosp17</name>
<cmt>q</cmt>
<desc>Spiennes Sentier n°17 </desc>
<link href="https://chemins.be/spiennes/sentier/17"/><trkseg>
<trkpt lat="50.426386" lon="3.992240"><time>2026-05-02T20:45:19Z</time></trkpt>
<trkpt lat="50.427544" lon="3.992793"><time>2026-05-02T20:55:19Z</time></trkpt>
</trkseg>
</trk>
<trk>
<name>hmosp18</name>
<cmt>v</cmt>
<desc>Spiennes Sentier n°18 </desc>
<link href="https://chemins.be/spiennes/sentier/18"/><trkseg>
<trkpt lat="50.426615" lon="3.989138"><time>2026-05-02T19:55:19Z</time></trkpt>
<trkpt lat="50.426723" lon="3.989094"><time>2026-05-02T20:05:19Z</time></trkpt>
<trkpt lat="50.426804" lon="3.989108"><time>2026-05-02T20:15:19Z</time></trkpt>
<trkpt lat="50.427183" lon="3.989583"><time>2026-05-02T20:25:19Z</time></trkpt>
<trkpt lat="50.427607" lon="3.990101"><time>2026-05-02T20:35:19Z</time></trkpt>
<trkpt lat="50.427833" lon="3.990394"><time>2026-05-02T20:45:19Z</time></trkpt>
<trkpt lat="50.428086" lon="3.990702"><time>2026-05-02T20:55:19Z</time></trkpt>
<trkpt lat="50.428248" lon="3.990926"><time>2026-05-02T21:05:19Z</time></trkpt>
<trkpt lat="50.428330" lon="3.991038"><time>2026-05-02T21:15:19Z</time></trkpt>
</trkseg></trk>
<trk>
<name>hmosp18</name>
<cmt>q</cmt>
<desc>Spiennes Sentier n°18 </desc>
<link href="https://chemins.be/spiennes/sentier/18"/><trkseg>
<trkpt lat="50.428330" lon="3.991038"><time>2026-05-02T21:15:19Z</time></trkpt>
<trkpt lat="50.429005" lon="3.994101"><time>2026-05-02T21:25:19Z</time></trkpt>
<trkpt lat="50.429063" lon="3.995339"><time>2026-05-02T21:35:19Z</time></trkpt>
</trkseg>
</trk>
<trk>
<name>hmosp19</name>
<cmt>v</cmt>
<desc>Spiennes Sentier n°19 </desc>
<link href="https://chemins.be/spiennes/sentier/19"/><trkseg>
<trkpt lat="50.428339" lon="3.991038"><time>2026-05-02T19:55:19Z</time></trkpt>
<trkpt lat="50.428769" lon="3.990528"><time>2026-05-02T20:05:19Z</time></trkpt>
</trkseg>
</trk>
<trk>
<name>hmosp20</name>
<cmt>q</cmt>
<desc>Spiennes Sentier n°20 </desc>
<link href="https://chemins.be/spiennes/sentier/20"/><trkseg>
<trkpt lat="50.420860" lon="4.009516"><time>2026-05-02T19:55:19Z</time></trkpt>
<trkpt lat="50.421423" lon="4.009336"><time>2026-05-02T20:05:19Z</time></trkpt>
<trkpt lat="50.422231" lon="4.008645"><time>2026-05-02T20:15:19Z</time></trkpt>
<trkpt lat="50.424375" lon="4.008714"><time>2026-05-02T20:25:19Z</time></trkpt>
<trkpt lat="50.424987" lon="4.008302"><time>2026-05-02T20:35:19Z</time></trkpt>
<trkpt lat="50.427135" lon="4.008062"><time>2026-05-02T20:45:19Z</time></trkpt>
<trkpt lat="50.430225" lon="4.007718"><time>2026-05-02T20:55:19Z</time></trkpt>
<trkpt lat="50.432758" lon="4.008057"><time>2026-05-02T21:05:19Z</time></trkpt>
</trkseg>
</trk>
<trk>
<name>hmosp22</name>
<cmt>q</cmt>
<desc>Spiennes Sentier n°22 </desc>
<link href="https://chemins.be/spiennes/sentier/22"/><trkseg>
<trkpt lat="50.422090" lon="3.987040"><time>2026-05-02T19:55:19Z</time></trkpt>
<trkpt lat="50.422121" lon="3.989315"><time>2026-05-02T20:05:19Z</time></trkpt>
<trkpt lat="50.421892" lon="3.990339"><time>2026-05-02T20:15:19Z</time></trkpt>
</trkseg>
</trk>
<trk>
<name>hmosp23</name>
<cmt>v</cmt>
<desc>Spiennes Sentier n°23 </desc>
<link href="https://chemins.be/spiennes/sentier/23"/><trkseg>
<trkpt lat="50.421601" lon="3.987010"><time>2026-05-02T19:55:19Z</time></trkpt>
<trkpt lat="50.421663" lon="3.986757"><time>2026-05-02T20:05:19Z</time></trkpt>
<trkpt lat="50.421600" lon="3.986687"><time>2026-05-02T20:15:19Z</time></trkpt>
<trkpt lat="50.421393" lon="3.986717"><time>2026-05-02T20:25:19Z</time></trkpt>
<trkpt lat="50.421374" lon="3.986449"><time>2026-05-02T20:35:19Z</time></trkpt>
<trkpt lat="50.421392" lon="3.986365"><time>2026-05-02T20:45:19Z</time></trkpt>
<trkpt lat="50.421776" lon="3.985686"><time>2026-05-02T20:55:19Z</time></trkpt>
<trkpt lat="50.421874" lon="3.985404"><time>2026-05-02T21:05:19Z</time></trkpt>
<trkpt lat="50.421847" lon="3.985348"><time>2026-05-02T21:15:19Z</time></trkpt>
<trkpt lat="50.421846" lon="3.984982"><time>2026-05-02T21:25:19Z</time></trkpt>
</trkseg>
</trk>
<trk>
<name>hmosp23bis</name>
<cmt>q</cmt>
<desc>Spiennes Sentier n°23bis </desc>
<link href="https://chemins.be/spiennes/sentier/23bis"/><trkseg>
<trkpt lat="50.421388" lon="3.986745"><time>2026-05-02T19:55:19Z</time></trkpt>
<trkpt lat="50.420891" lon="3.986843"><time>2026-05-02T20:05:19Z</time></trkpt>
<trkpt lat="50.419487" lon="3.985899"><time>2026-05-02T20:15:19Z</time></trkpt>
<trkpt lat="50.418629" lon="3.984354"><time>2026-05-02T20:25:19Z</time></trkpt>
<trkpt lat="50.418050" lon="3.983855"><time>2026-05-02T20:35:19Z</time></trkpt>
<trkpt lat="50.417784" lon="3.983886"><time>2026-05-02T20:45:19Z</time></trkpt>
<trkpt lat="50.416864" lon="3.984198"><time>2026-05-02T20:55:19Z</time></trkpt>
<trkpt lat="50.416180" lon="3.985505"><time>2026-05-02T21:05:19Z</time></trkpt>
<trkpt lat="50.416069" lon="3.986137"><time>2026-05-02T21:15:19Z</time></trkpt>
<trkpt lat="50.415885" lon="3.987366"><time>2026-05-02T21:25:19Z</time></trkpt>
<trkpt lat="50.414080" lon="3.991497"><time>2026-05-02T21:35:19Z</time></trkpt>
<trkpt lat="50.413458" lon="3.993245"><time>2026-05-02T21:45:19Z</time></trkpt>
<trkpt lat="50.413426" lon="3.994049"><time>2026-05-02T21:55:19Z</time></trkpt>
</trkseg>
</trk>
<trk>
<name>hmosp24</name>
<cmt>v</cmt>
<desc>Spiennes Sentier n°24 Rue Fontaine Tordeur</desc>
<link href="https://chemins.be/spiennes/sentier/24"/><trkseg>
<trkpt lat="50.425616" lon="3.986396"><time>2026-05-02T19:55:19Z</time></trkpt>
<trkpt lat="50.425742" lon="3.986319"><time>2026-05-02T20:05:19Z</time></trkpt>
<trkpt lat="50.425854" lon="3.986164"><time>2026-05-02T20:15:19Z</time></trkpt>
<trkpt lat="50.425887" lon="3.986085"><time>2026-05-02T20:25:19Z</time></trkpt>
<trkpt lat="50.425883" lon="3.985855"><time>2026-05-02T20:35:19Z</time></trkpt>
<trkpt lat="50.425789" lon="3.985657"><time>2026-05-02T20:45:19Z</time></trkpt>
</trkseg>
</trk>
<trk>
<name>hmosp25</name>
<cmt>v</cmt>
<desc>Spiennes Sentier n°25 </desc>
<link href="https://chemins.be/spiennes/sentier/25"/><trkseg>
<trkpt lat="50.423696" lon="3.987233"><time>2026-05-02T19:55:19Z</time></trkpt>
<trkpt lat="50.424629" lon="3.986606"><time>2026-05-02T20:05:19Z</time></trkpt>
</trkseg>
</trk>
<trk>
<name>hmosp3</name>
<cmt>r</cmt>
<desc>Spiennes Chemin n°3 Rue d'Harmignies</desc>
<link href="https://chemins.be/spiennes/chemin/3"/><trkseg>
<trkpt lat="50.419785" lon="3.992282"><time>2026-05-02T19:55:19Z</time></trkpt>
<trkpt lat="50.417415" lon="3.993555"><time>2026-05-02T20:05:19Z</time></trkpt>
<trkpt lat="50.415583" lon="3.995830"><time>2026-05-02T20:15:19Z</time></trkpt>
<trkpt lat="50.415027" lon="3.997461"><time>2026-05-02T20:25:19Z</time></trkpt>
</trkseg>
</trk>
<trk>
<name>hmosp8</name>
<cmt>v</cmt>
<desc>Spiennes Chemin n°8 </desc>
<link href="https://chemins.be/spiennes/chemin/8"/><trkseg>
<trkpt lat="50.425883" lon="3.980426"><time>2026-05-02T19:55:19Z</time></trkpt>
<trkpt lat="50.426512" lon="3.980151"><time>2026-05-02T20:05:19Z</time></trkpt>
<trkpt lat="50.426779" lon="3.980139"><time>2026-05-02T20:15:19Z</time></trkpt>
</trkseg>
</trk>
<trk>
<name>hmospi1</name>
<cmt>v</cmt>
<desc>Spiennes Sentier n°i1 </desc>
<link href="https://chemins.be/spiennes/sentier/i1"/><trkseg>
<trkpt lat="50.425795" lon="3.985626"><time>2026-05-02T19:55:19Z</time></trkpt>
<trkpt lat="50.425668" lon="3.985500"><time>2026-05-02T20:05:19Z</time></trkpt>
<trkpt lat="50.425622" lon="3.985163"><time>2026-05-02T20:15:19Z</time></trkpt>
<trkpt lat="50.425208" lon="3.984828"><time>2026-05-02T20:25:19Z</time></trkpt>
</trkseg>
</trk>
<trk>
<name>hmospi10</name>
<cmt>v</cmt>
<desc>Spiennes Sentier n°i10 </desc>
<link href="https://chemins.be/spiennes/sentier/i10"/><trkseg>
<trkpt lat="50.418310" lon="3.982700"><time>2026-05-02T19:55:19Z</time></trkpt>
<trkpt lat="50.418338" lon="3.982632"><time>2026-05-02T20:05:19Z</time></trkpt>
<trkpt lat="50.418205" lon="3.982146"><time>2026-05-02T20:15:19Z</time></trkpt>
<trkpt lat="50.418144" lon="3.981885"><time>2026-05-02T20:25:19Z</time></trkpt>
</trkseg>
</trk>
<trk>
<name>hmospi11</name>
<cmt>r</cmt>
<desc>Spiennes Chemin n°i11 Rue d'Harmignies</desc>
<link href="https://chemins.be/spiennes/chemin/i11"/><trkseg>
<trkpt lat="50.420179" lon="4.003415"><time>2026-05-02T19:55:19Z</time></trkpt>
<trkpt lat="50.416696" lon="3.999059"><time>2026-05-02T20:05:19Z</time></trkpt>
</trkseg></trk>
<trk>
<name>hmospi11</name>
<cmt>v</cmt>
<desc>Spiennes Chemin n°i11 Rue d'Harmignies</desc>
<link href="https://chemins.be/spiennes/chemin/i11"/><trkseg>
<trkpt lat="50.416696" lon="3.999059"><time>2026-05-02T20:05:19Z</time></trkpt>
<trkpt lat="50.416116" lon="3.998287"><time>2026-05-02T20:15:19Z</time></trkpt>
</trkseg></trk>
<trk>
<name>hmospi11</name>
<cmt>r</cmt>
<desc>Spiennes Chemin n°i11 Rue d'Harmignies</desc>
<link href="https://chemins.be/spiennes/chemin/i11"/><trkseg>
<trkpt lat="50.416116" lon="3.998287"><time>2026-05-02T20:15:19Z</time></trkpt>
<trkpt lat="50.415748" lon="3.997793"><time>2026-05-02T20:25:19Z</time></trkpt>
<trkpt lat="50.415064" lon="3.997478"><time>2026-05-02T20:35:19Z</time></trkpt>
</trkseg>
</trk>
<trk>
<name>hmospi12</name>
<cmt>v</cmt>
<desc>Spiennes Chemin n°i12 </desc>
<link href="https://chemins.be/spiennes/chemin/i12"/><trkseg>
<trkpt lat="50.417653" lon="4.000261"><time>2026-05-02T19:55:19Z</time></trkpt>
<trkpt lat="50.416843" lon="4.001842"><time>2026-05-02T20:05:19Z</time></trkpt>
</trkseg>
</trk>
<trk>
<name>hmospi2</name>
<cmt>v</cmt>
<desc>Spiennes Chemin n°i2 </desc>
<link href="https://chemins.be/spiennes/chemin/i2"/><trkseg>
<trkpt lat="50.421122" lon="3.974811"><time>2026-05-02T19:55:19Z</time></trkpt>
<trkpt lat="50.420117" lon="3.974682"><time>2026-05-02T20:05:19Z</time></trkpt>
<trkpt lat="50.420041" lon="3.974382"><time>2026-05-02T20:15:19Z</time></trkpt>
<trkpt lat="50.416945" lon="3.973309"><time>2026-05-02T20:25:19Z</time></trkpt>
<trkpt lat="50.415372" lon="3.976743"><time>2026-05-02T20:35:19Z</time></trkpt>
<trkpt lat="50.414928" lon="3.977440"><time>2026-05-02T20:45:19Z</time></trkpt>
</trkseg>
</trk>
<trk>
<name>hmospi3</name>
<cmt>v</cmt>
<desc>Spiennes Chemin n°i3 </desc>
<link href="https://chemins.be/spiennes/chemin/i3"/><trkseg>
<trkpt lat="50.427100" lon="4.011108"><time>2026-05-02T19:55:19Z</time></trkpt>
<trkpt lat="50.427154" lon="4.005379"><time>2026-05-02T20:05:19Z</time></trkpt>
<trkpt lat="50.426409" lon="4.002394"><time>2026-05-02T20:15:19Z</time></trkpt>
<trkpt lat="50.425488" lon="3.999690"><time>2026-05-02T20:25:19Z</time></trkpt>
<trkpt lat="50.423287" lon="3.996922"><time>2026-05-02T20:35:19Z</time></trkpt>
<trkpt lat="50.419848" lon="3.992275"><time>2026-05-02T20:45:19Z</time></trkpt>
</trkseg>
</trk>
<trk>
<name>hmospi4</name>
<cmt>v</cmt>
<desc>Spiennes Chemin n°i4 </desc>
<link href="https://chemins.be/spiennes/chemin/i4"/><trkseg>
<trkpt lat="50.423823" lon="4.011297"><time>2026-05-02T19:55:19Z</time></trkpt>
<trkpt lat="50.421822" lon="4.011383"><time>2026-05-02T20:05:19Z</time></trkpt>
<trkpt lat="50.420301" lon="4.003555"><time>2026-05-02T20:15:19Z</time></trkpt>
</trkseg>
</trk>
<trk>
<name>hmospi5</name>
<cmt>v</cmt>
<desc>Spiennes Chemin n°i5 </desc>
<link href="https://chemins.be/spiennes/chemin/i5"/><trkseg>
<trkpt lat="50.426758" lon="3.980177"><time>2026-05-02T19:55:19Z</time></trkpt>
<trkpt lat="50.428666" lon="3.980031"><time>2026-05-02T20:05:19Z</time></trkpt>
</trkseg>
</trk>
<trk>
<name>hmospi6</name>
<cmt>v</cmt>
<desc>Spiennes Sentier n°i6 </desc>
<link href="https://chemins.be/spiennes/sentier/i6"/><trkseg>
<trkpt lat="50.422808" lon="3.977027"><time>2026-05-02T19:55:19Z</time></trkpt>
<trkpt lat="50.421498" lon="3.979354"><time>2026-05-02T20:05:19Z</time></trkpt>
<trkpt lat="50.421153" lon="3.979967"><time>2026-05-02T20:15:19Z</time></trkpt>
<trkpt lat="50.421112" lon="3.979917"><time>2026-05-02T20:25:19Z</time></trkpt>
<trkpt lat="50.419875" lon="3.982124"><time>2026-05-02T20:35:19Z</time></trkpt>
<trkpt lat="50.419735" lon="3.982469"><time>2026-05-02T20:45:19Z</time></trkpt>
<trkpt lat="50.419687" lon="3.983123"><time>2026-05-02T20:55:19Z</time></trkpt>
<trkpt lat="50.419851" lon="3.983585"><time>2026-05-02T21:05:19Z</time></trkpt>
<trkpt lat="50.420476" lon="3.984357"><time>2026-05-02T21:15:19Z</time></trkpt>
<trkpt lat="50.420443" lon="3.984569"><time>2026-05-02T21:25:19Z</time></trkpt>
<trkpt lat="50.420407" lon="3.984983"><time>2026-05-02T21:35:19Z</time></trkpt>
<trkpt lat="50.420381" lon="3.985119"><time>2026-05-02T21:45:19Z</time></trkpt>
</trkseg>
</trk>
<trk>
<name>hmospi7</name>
<cmt>q</cmt>
<desc>Spiennes Chemin n°i7 </desc>
<link href="https://chemins.be/spiennes/chemin/i7"/><trkseg>
<trkpt lat="50.429576" lon="3.975645"><time>2026-05-02T19:55:19Z</time></trkpt>
<trkpt lat="50.430225" lon="3.974594"><time>2026-05-02T20:05:19Z</time></trkpt>
<trkpt lat="50.430294" lon="3.973939"><time>2026-05-02T20:15:19Z</time></trkpt>
<trkpt lat="50.430013" lon="3.971794"><time>2026-05-02T20:25:19Z</time></trkpt>
<trkpt lat="50.429330" lon="3.971869"><time>2026-05-02T20:35:19Z</time></trkpt>
<trkpt lat="50.429016" lon="3.971643"><time>2026-05-02T20:45:19Z</time></trkpt>
</trkseg>
</trk>
<trk>
<name>hmospi8</name>
<cmt>v</cmt>
<desc>Spiennes Sentier n°i8 </desc>
<link href="https://chemins.be/spiennes/sentier/i8"/><trkseg>
<trkpt lat="50.425876" lon="3.986984"><time>2026-05-02T19:55:19Z</time></trkpt>
<trkpt lat="50.425890" lon="3.986829"><time>2026-05-02T20:05:19Z</time></trkpt>
<trkpt lat="50.425857" lon="3.986727"><time>2026-05-02T20:15:19Z</time></trkpt>
<trkpt lat="50.425743" lon="3.986296"><time>2026-05-02T20:25:19Z</time></trkpt>
</trkseg>
</trk>
<trk>
<name>hmospi9</name>
<cmt>v</cmt>
<desc>Spiennes Sentier n°i9 </desc>
<link href="https://chemins.be/spiennes/sentier/i9"/><trkseg>
<trkpt lat="50.418319" lon="3.982790"><time>2026-05-02T19:55:19Z</time></trkpt>
<trkpt lat="50.418217" lon="3.982908"><time>2026-05-02T20:05:19Z</time></trkpt>
<trkpt lat="50.418019" lon="3.983344"><time>2026-05-02T20:15:19Z</time></trkpt>
<trkpt lat="50.417893" lon="3.983873"><time>2026-05-02T20:25:19Z</time></trkpt>
<trkpt lat="50.417866" lon="3.984070"><time>2026-05-02T20:35:19Z</time></trkpt>
<trkpt lat="50.417777" lon="3.984306"><time>2026-05-02T20:45:19Z</time></trkpt>
<trkpt lat="50.417532" lon="3.984507"><time>2026-05-02T20:55:19Z</time></trkpt>
<trkpt lat="50.417458" lon="3.984567"><time>2026-05-02T21:05:19Z</time></trkpt>
<trkpt lat="50.417314" lon="3.984571"><time>2026-05-02T21:15:19Z</time></trkpt>
<trkpt lat="50.417169" lon="3.984541"><time>2026-05-02T21:25:19Z</time></trkpt>
<trkpt lat="50.417098" lon="3.984469"><time>2026-05-02T21:35:19Z</time></trkpt>
<trkpt lat="50.416913" lon="3.984457"><time>2026-05-02T21:45:19Z</time></trkpt>
<trkpt lat="50.416709" lon="3.984711"><time>2026-05-02T21:55:19Z</time></trkpt>
</trkseg>
</trk>
<trk>
<name>hmospL109</name>
<cmt>v</cmt>
<desc>Spiennes Chemin n°L109 </desc>
<link href="https://chemins.be/spiennes/chemin/L109"/><trkseg>
<trkpt lat="50.420270" lon="3.971712"><time>2026-05-02T19:55:19Z</time></trkpt>
<trkpt lat="50.420174" lon="3.974720"><time>2026-05-02T20:05:19Z</time></trkpt>
<trkpt lat="50.419496" lon="3.977931"><time>2026-05-02T20:15:19Z</time></trkpt>
<trkpt lat="50.418003" lon="3.982299"><time>2026-05-02T20:25:19Z</time></trkpt>
<trkpt lat="50.417281" lon="3.984565"><time>2026-05-02T20:35:19Z</time></trkpt>
<trkpt lat="50.415471" lon="3.989887"><time>2026-05-02T20:45:19Z</time></trkpt>
<trkpt lat="50.414092" lon="3.995234"><time>2026-05-02T20:55:19Z</time></trkpt>
</trkseg>
</trk>
</gpx>